QPF
0.00 0.00 0.01 0.01 0.02 0.02 0.01 0.01 0.01 0.01 0.00 0.00 0.00 0.00 0.00 0.00 0.00 0.01 0.01 0.02 0.03 0.04 0.06 0.06 0.05 0.04 0.03 0.03 0.02 0.01 0.01 0.01 0.01 0.01 0.01 0.01 0.00 0.00 0.00 0.01 0.01 0.01 0.01
0.01 0.01 0.01 0.02 0.03 0.03 0.03 0.02 0.02 0.02 0.01 0.00 0.00 0.00 0.00 0.00 0.00 0.01 0.01 0.02 0.02 0.03 0.06 0.08 0.06 0.04 0.03 0.03 0.03 0.02 0.02 0.02 0.01 0.02 0.01 0.00 0.00 0.00 0.01 0.01 0.00 0.00 0.00
0.02 0.03 0.03 0.04 0.05 0.05 0.05 0.04 0.04 0.02 0.01 0.01 0.01 0.01 0.00 0.00 0.00 0.00 0.01 0.02 0.02 0.03 0.04 0.06 0.06 0.05 0.05 0.05 0.04 0.04 0.04 0.03 0.03 0.02 0.01 0.01 0.01 0.01 0.01 0.01 0.01 0.01 0.00
0.02 0.03 0.04 0.07 0.08 0.09 0.08 0.08 0.05 0.05 0.04 0.03 0.03 0.02 0.01 0.01 0.01 0.01 0.01 0.01 0.02 0.02 0.03 0.03 0.05 0.06 0.06 0.05 0.04 0.04 0.03 0.03 0.03 0.02 0.02 0.02 0.02 0.02 0.01 0.01 0.01 0.01 0.01
0.05 0.08 0.10 0.12 0.13 0.13 0.13 0.13 0.11 0.10 0.09 0.06 0.04 0.03 0.01 0.01 0.01 0.01 0.01 0.01 0.02 0.02 0.02 0.03 0.04 0.04 0.04 0.04 0.04 0.03 0.03 0.03 0.03 0.03 0.03 0.03 0.03 0.02 0.02 0.02 0.01 0.01 0.01
0.12 0.14 0.15 0.16 0.18 0.21 0.24 0.22 0.16 0.14 0.12 0.10 0.06 0.04 0.02 0.02 0.01 0.01 0.01 0.01 0.01 0.01 0.01 0.02 0.03 0.03 0.03 0.03 0.02 0.02 0.02 0.02 0.02 0.03 0.03 0.03 0.03 0.03 0.03 0.02 0.02 0.01 0.01
0.22 0.24 0.29 0.32 0.31 0.32 0.35 0.31 0.25 0.22 0.16 0.13 0.11 0.09 0.05 0.03 0.02 0.02 0.02 0.01 0.01 0.00 0.00 0.00 0.01 0.02 0.02 0.01 0.01 0.01 0.01 0.01 0.02 0.02 0.04 0.04 0.04 0.03 0.02 0.02 0.02 0.01 0.01
0.37 0.38 0.43 0.43 0.39 0.40 0.38 0.33 0.27 0.24 0.20 0.17 0.16 0.16 0.12 0.08 0.05 0.02 0.02 0.01 0.01 0.00 0.00 0.00 0.00 0.01 0.01 0.01 0.02 0.01 0.01 0.02 0.02 0.02 0.02 0.03 0.03 0.02 0.02 0.02 0.02 0.02 0.01
0.50 0.47 0.44 0.41 0.39 0.39 0.39 0.39 0.35 0.30 0.24 0.19 0.15 0.14 0.12 0.11 0.08 0.04 0.03 0.02 0.01 0.01 0.01 0.01 0.01 0.01 0.01 0.01 0.01 0.01 0.01 0.01 0.01 0.02 0.02 0.02 0.02 0.02 0.02 0.02 0.02 0.02 0.01
0.55 0.46 0.39 0.34 0.36 0.40 0.42 0.39 0.31 0.24 0.19 0.15 0.12 0.09 0.07 0.07 0.07 0.06 0.05 0.03 0.02 0.01 0.01 0.01 0.01 0.01 0.01 0.01 0.01 0.01 0.01 0.01 0.01 0.01 0.01 0.01 0.01 0.02 0.03 0.03 0.03 0.03 0.03
0.47 0.38 0.31 0.28 0.27 0.26 0.25 0.20 0.16 0.15 0.13 0.12 0.11 0.09 0.09 0.08 0.07 0.06 0.05 0.03 0.02 0.01 0.01 0.01 0.00 0.00 0.00 0.00 0.00 0.01 0.01 0.00 0.00 0.00 0.00 0.01 0.01 0.01 0.01 0.02 0.03 0.04 0.05
0.31 0.26 0.19 0.15 0.13 0.12 0.10 0.09 0.09 0.09 0.10 0.11 0.10 0.08 0.07 0.06 0.05 0.04 0.04 0.03 0.02 0.01 0.01 0.01 0.00 0.00 0.00 0.00 0.00 0.00 0.00 0.00 0.00 0.00 0.00 0.01 0.01 0.01 0.01 0.01 0.01 0.02 0.03
0.20 0.17 0.13 0.10 0.08 0.07 0.06 0.06 0.07 0.07 0.07 0.07 0.06 0.06 0.05 0.05 0.04 0.03 0.03 0.02 0.02 0.01 0.01 0.01 0.00 0.00 0.00 0.00 0.00 0.00 0.00 0.00 0.00 0.00 0.00 0.00 0.00 0.00 0.01 0.01 0.01 0.01 0.01
0.09 0.07 0.07 0.07 0.06 0.06 0.05 0.05 0.04 0.04 0.04 0.03 0.03 0.03 0.03 0.02 0.02 0.02 0.02 0.02 0.02 0.02 0.01 0.01 0.00 0.00 0.00 0.00 0.00 0.00 0.00 0.00 0.00 0.00 0.00 0.00 0.00 0.00 0.00 0.01 0.01 0.01 0.01
0.07 0.06 0.06 0.06 0.06 0.05 0.04 0.03 0.04 0.03 0.03 0.03 0.02 0.02 0.02 0.02 0.01 0.01 0.01 0.01 0.01 0.01 0.01 0.00 0.00 0.00 0.00 0.00 0.00 0.00 0.00 0.00 0.00 0.00 0.00 0.00 0.00 0.00 0.00 0.00 0.00 0.01 0.01
0.07 0.07 0.06 0.05 0.04 0.04 0.03 0.03 0.03 0.02 0.02 0.02 0.02 0.01 0.01 0.01 0.01 0.01 0.01 0.01 0.01 0.00 0.00 0.00 0.00 0.00 0.00 0.00 0.00 0.00 0.00 0.00 0.00 0.00 0.00 0.00 0.00 0.00 0.00 0.00 0.00 0.01 0.01
0.06 0.05 0.05 0.04 0.04 0.04 0.04 0.04 0.04 0.04 0.03 0.03 0.02 0.01 0.01 0.01 0.01 0.01 0.01 0.00 0.00 0.00 0.00 0.00 0.00 0.00 0.00 0.00 0.00 0.00 0.00 0.00 0.00 0.00 0.00 0.00 0.00 0.00 0.00 0.00 0.00 0.01 0.01
0.05 0.05 0.05 0.05 0.05 0.04 0.04 0.04 0.04 0.04 0.03 0.03 0.02 0.02 0.02 0.01 0.01 0.01 0.01 0.01 0.01 0.01 0.01 0.01 0.00 0.00 0.00 0.00 0.00 0.00 0.00 0.00 0.00 0.00 0.00 0.00 0.00 0.00 0.00 0.00 0.00 0.00 0.00
0.05 0.04 0.03 0.03 0.02 0.02 0.02 0.02 0.02 0.02 0.02 0.02 0.02 0.02 0.01 0.01 0.01 0.01 0.02 0.02 0.02 0.01 0.01 0.01 0.01 0.01 0.00 0.00 0.00 0.00 0.00 0.01 0.00 0.00 0.00 0.00 0.00 0.00 0.00 0.00 0.00 0.00 0.00
0.03 0.02 0.02 0.01 0.01 0.01 0.01 0.01 0.01 0.01 0.01 0.01 0.01 0.01 0.01 0.01 0.01 0.01 0.01 0.02 0.02 0.02 0.02 0.02 0.01 0.01 0.01 0.00 0.01 0.01 0.01 0.01 0.01 0.00 0.01 0.01 0.00 0.00 0.00 0.00 0.00 0.00 0.00
0.01 0.00 0.00 0.00 0.00 0.00 0.00 0.00 0.00 0.00 0.00 0.00 0.00 0.00 0.00 0.00 0.00 0.01 0.01 0.02 0.02 0.02 0.02 0.02 0.01 0.01 0.01 0.02 0.03 0.03 0.02 0.01 0.01 0.01 0.02 0.02 0.02 0.02 0.03 0.02 0.01 0.01 0.00
0.00 0.00 0.00 0.00 0.00 0.00 0.00 0.00 0.00 0.00 0.00 0.00 0.00 0.00 0.00 0.00 0.00 0.00 0.00 0.00 0.01 0.02 0.02 0.02 0.02 0.02 0.03 0.04 0.04 0.04 0.03 0.03 0.03 0.02 0.03 0.02 0.02 0.03 0.04 0.04 0.02 0.00 0.00
0.00 0.00 0.00 0.00 0.00 0.00 0.00 0.00 0.00 0.00 0.01 0.01 0.01 0.01 0.00 0.00 0.01 0.01 0.01 0.01 0.01 0.01 0.01 0.02 0.03 0.03 0.04 0.04 0.05 0.04 0.05 0.05 0.04 0.04 0.05 0.03 0.03 0.04 0.03 0.02 0.00 0.00 0.00
0.00 0.00 0.00 0.01 0.01 0.01 0.00 0.00 0.00 0.00 0.01 0.01 0.01 0.01 0.01 0.01 0.01 0.01 0.01 0.01 0.03 0.04 0.03 0.02 0.03 0.03 0.03 0.03 0.04 0.04 0.04 0.04 0.04 0.05 0.06 0.05 0.03 0.03 0.02 0.05 0.02 0.00 0.00
0.01 0.00 0.00 0.01 0.01 0.01 0.00 0.00 0.00 0.00 0.01 0.01 0.01 0.01 0.01 0.02 0.01 0.01 0.01 0.02 0.04 0.05 0.02 0.01 0.01 0.01 0.01 0.01 0.01 0.02 0.04 0.05 0.04 0.03 0.05 0.05 0.03 0.03 0.02 0.04 0.04 0.01 0.00
0.01 0.01 0.00 0.01 0.01 0.02 0.00 0.00 0.00 0.00 0.01 0.01 0.01 0.02 0.02 0.01 0.00 0.01 0.01 0.03 0.04 0.05 0.04 0.04 0.04 0.04 0.04 0.03 0.01 0.03 0.05 0.05 0.05 0.04 0.04 0.05 0.04 0.04 0.03 0.02 0.04 0.05 0.05
MSLP
1017.71 1017.93 1018.11 1018.24 1018.34 1018.42 1018.45 1018.44 1018.37 1018.24 1018.05 1017.81 1017.57 1017.36 1017.22 1017.21 1017.34 1017.62 1018.04 1018.54 1019.08 1019.60 1020.05 1020.41 1020.67 1020.85 1020.97 1021.07 1021.18 1021.32 1021.48 1021.65 1021.82 1021.96 1022.06 1022.11 1022.12 1022.10 1022.07 1022.05 1022.05 1022.08 1022.13
1017.76 1018.00 1018.18 1018.33 1018.44 1018.52 1018.55 1018.54 1018.48 1018.35 1018.17 1017.95 1017.72 1017.53 1017.41 1017.40 1017.52 1017.79 1018.17 1018.64 1019.13 1019.60 1020.01 1020.33 1020.57 1020.73 1020.85 1020.96 1021.08 1021.23 1021.41 1021.61 1021.80 1021.96 1022.08 1022.15 1022.17 1022.15 1022.12 1022.09 1022.07 1022.08 1022.12
1017.80 1018.05 1018.25 1018.42 1018.55 1018.65 1018.71 1018.72 1018.68 1018.59 1018.45 1018.26 1018.08 1017.91 1017.81 1017.81 1017.92 1018.16 1018.49 1018.89 1019.31 1019.71 1020.06 1020.33 1020.52 1020.65 1020.74 1020.84 1020.95 1021.10 1021.29 1021.49 1021.70 1021.88 1022.02 1022.11 1022.15 1022.15 1022.13 1022.10 1022.09 1022.11 1022.15
1017.79 1018.05 1018.27 1018.46 1018.62 1018.75 1018.84 1018.90 1018.91 1018.88 1018.79 1018.67 1018.54 1018.42 1018.35 1018.36 1018.46 1018.65 1018.93 1019.26 1019.60 1019.92 1020.19 1020.39 1020.52 1020.61 1020.66 1020.73 1020.82 1020.95 1021.12 1021.32 1021.53 1021.72 1021.88 1021.98 1022.04 1022.06 1022.06 1022.06 1022.07 1022.11 1022.17
1017.72 1018.00 1018.24 1018.45 1018.64 1018.80 1018.93 1019.04 1019.11 1019.14 1019.12 1019.07 1019.00 1018.94 1018.91 1018.93 1019.02 1019.19 1019.41 1019.67 1019.93 1020.17 1020.37 1020.50 1020.58 1020.61 1020.63 1020.65 1020.71 1020.81 1020.95 1021.13 1021.32 1021.50 1021.66 1021.77 1021.85 1021.89 1021.91 1021.94 1021.98 1022.04 1022.14
1017.65 1017.94 1018.20 1018.42 1018.63 1018.81 1018.98 1019.12 1019.24 1019.33 1019.38 1019.39 1019.39 1019.38 1019.39 1019.43 1019.52 1019.66 1019.84 1020.04 1020.24 1020.41 1020.54 1020.62 1020.65 1020.65 1020.63 1020.62 1020.64 1020.71 1020.82 1020.95 1021.11 1021.27 1021.41 1021.52 1021.59 1021.65 1021.69 1021.74 1021.80 1021.89 1022.01
1017.66 1017.97 1018.23 1018.46 1018.67 1018.86 1019.04 1019.20 1019.34 1019.47 1019.56 1019.63 1019.68 1019.71 1019.75 1019.81 1019.89 1020.00 1020.14 1020.30 1020.45 1020.58 1020.67 1020.72 1020.72 1020.70 1020.67 1020.65 1020.65 1020.68 1020.75 1020.85 1020.97 1021.09 1021.19 1021.27 1021.33 1021.38 1021.42 1021.47 1021.55 1021.65 1021.78
1017.85 1018.17 1018.43 1018.66 1018.85 1019.02 1019.18 1019.34 1019.48 1019.61 1019.72 1019.81 1019.88 1019.94 1019.99 1020.05 1020.12 1020.21 1020.31 1020.42 1020.54 1020.63 1020.71 1020.75 1020.76 1020.75 1020.73 1020.71 1020.71 1020.74 1020.78 1020.85 1020.92 1020.99 1021.05 1021.09 1021.11 1021.12 1021.14 1021.18 1021.24 1021.34 1021.46
1018.30 1018.62 1018.87 1019.07 1019.23 1019.37 1019.49 1019.61 1019.72 1019.83 1019.92 1020.00 1020.07 1020.12 1020.16 1020.19 1020.23 1020.29 1020.35 1020.43 1020.51 1020.59 1020.65 1020.71 1020.74 1020.77 1020.78 1020.80 1020.82 1020.86 1020.90 1020.94 1020.98 1021.01 1021.01 1021.00 1020.97 1020.93 1020.90 1020.90 1020.92 1020.98 1021.08
1019.01 1019.33 1019.56 1019.73 1019.84 1019.92 1019.99 1020.05 1020.11 1020.17 1020.23 1020.27 1020.30 1020.32 1020.32 1020.32 1020.31 1020.31 1020.33 1020.36 1020.40 1020.46 1020.53 1020.59 1020.66 1020.73 1020.80 1020.87 1020.94 1021.00 1021.06 1021.10 1021.11 1021.10 1021.06 1020.99 1020.90 1020.81 1020.72 1020.66 1020.63 1020.63 1020.67
1019.93 1020.23 1020.43 1020.55 1020.62 1020.65 1020.65 1020.65 1020.65 1020.65 1020.66 1020.65 1020.63 1020.59 1020.54 1020.48 1020.41 1020.34 1020.30 1020.27 1020.27 1020.30 1020.35 1020.43 1020.53 1020.64 1020.77 1020.89 1021.01 1021.12 1021.20 1021.25 1021.26 1021.22 1021.14 1021.03 1020.89 1020.74 1020.59 1020.46 1020.36 1020.30 1020.27
1020.94 1021.21 1021.38 1021.46 1021.48 1021.45 1021.41 1021.35 1021.29 1021.24 1021.18 1021.12 1021.04 1020.95 1020.83 1020.70 1020.57 1020.43 1020.31 1020.22 1020.16 1020.14 1020.17 1020.24 1020.35 1020.50 1020.66 1020.83 1020.99 1021.14 1021.25 1021.32 1021.34 1021.29 1021.19 1021.05 1020.87 1020.67 1020.47 1020.28 1020.12 1019.99 1019.89
1021.92 1022.15 1022.27 1022.32 1022.30 1022.24 1022.15 1022.05 1021.95 1021.86 1021.75 1021.65 1021.52 1021.37 1021.20 1021.00 1020.80 1020.59 1020.40 1020.23 1020.11 1020.03 1020.02 1020.06 1020.15 1020.30 1020.47 1020.67 1020.86 1021.03 1021.17 1021.26 1021.28 1021.24 1021.13 1020.97 1020.77 1020.55 1020.32 1020.09 1019.88 1019.70 1019.54
1022.74 1022.93 1023.02 1023.03 1022.99 1022.90 1022.80 1022.68 1022.56 1022.43 1022.30 1022.16 1022.00 1021.81 1021.59 1021.34 1021.08 1020.81 1020.55 1020.32 1020.13 1019.99 1019.91 1019.90 1019.96 1020.07 1020.22 1020.40 1020.59 1020.77 1020.91 1021.01 1021.04 1021.00 1020.90 1020.74 1020.54 1020.31 1020.07 1019.83 1019.60 1019.39 1019.19
1023.35 1023.49 1023.55 1023.55 1023.50 1023.41 1023.30 1023.18 1023.06 1022.92 1022.78 1022.61 1022.43 1022.21 1021.96 1021.68 1021.38 1021.07 1020.76 1020.47 1020.22 1020.02 1019.87 1019.79 1019.78 1019.83 1019.93 1020.07 1020.22 1020.37 1020.49 1020.57 1020.60 1020.57 1020.47 1020.33 1020.14 1019.92 1019.69 1019.46 1019.23 1019.01 1018.81
1023.74 1023.84 1023.89 1023.88 1023.84 1023.76 1023.67 1023.56 1023.44 1023.31 1023.15 1022.98 1022.78 1022.54 1022.28 1021.98 1021.66 1021.33 1020.99 1020.66 1020.37 1020.10 1019.89 1019.73 1019.64 1019.61 1019.63 1019.69 1019.77 1019.86 1019.94 1019.99 1019.99 1019.95 1019.86 1019.72 1019.55 1019.36 1019.15 1018.95 1018.75 1018.55 1018.36
1023.96 1024.04 1024.09 1024.09 1024.07 1024.02 1023.94 1023.85 1023.74 1023.60 1023.45 1023.26 1023.04 1022.80 1022.52 1022.22 1021.90 1021.56 1021.22 1020.88 1020.55 1020.24 1019.97 1019.74 1019.56 1019.43 1019.35 1019.32 1019.31 1019.31 1019.32 1019.31 1019.28 1019.21 1019.10 1018.97 1018.81 1018.64 1018.47 1018.30 1018.13 1017.97 1017.82
1024.10 1024.18 1024.23 1024.26 1024.26 1024.24 1024.19 1024.11 1024.01 1023.86 1023.69 1023.49 1023.25 1022.99 1022.71 1022.42 1022.10 1021.77 1021.44 1021.10 1020.75 1020.42 1020.10 1019.81 1019.55 1019.32 1019.14 1018.99 1018.88 1018.78 1018.70 1018.62 1018.53 1018.42 1018.29 1018.14 1017.98 1017.83 1017.68 1017.54 1017.41 1017.29 1017.18
1024.24 1024.33 1024.40 1024.46 1024.49 1024.50 1024.47 1024.39 1024.28 1024.12 1023.93 1023.70 1023.44 1023.16 1022.87 1022.57 1022.26 1021.95 1021.64 1021.31 1020.97 1020.62 1020.27 1019.92 1019.59 1019.27 1018.99 1018.74 1018.52 1018.32 1018.15 1017.99 1017.83 1017.67 1017.50 1017.32 1017.15 1016.99 1016.85 1016.72 1016.62 1016.53 1016.45
1024.42 1024.52 1024.62 1024.71 1024.77 1024.79 1024.78 1024.71 1024.58 1024.40 1024.17 1023.91 1023.62 1023.31 1023.01 1022.71 1022.41 1022.12 1021.82 1021.51 1021.18 1020.83 1020.45 1020.06 1019.67 1019.28 1018.91 1018.56 1018.25 1017.96 1017.70 1017.46 1017.24 1017.02 1016.80 1016.59 1016.39 1016.20 1016.04 1015.91 1015.81 1015.73 1015.67
1024.64 1024.76 1024.88 1024.99 1025.07 1025.11 1025.10 1025.03 1024.89 1024.69 1024.42 1024.13 1023.80 1023.47 1023.15 1022.85 1022.56 1022.27 1021.99 1021.70 1021.37 1021.02 1020.62 1020.20 1019.76 1019.31 1018.87 1018.45 1018.06 1017.70 1017.37 1017.07 1016.79 1016.52 1016.25 1016.00 1015.75 1015.53 1015.33 1015.17 1015.04 1014.95 1014.88
1024.87 1024.99 1025.12 1025.25 1025.34 1025.40 1025.40 1025.32 1025.17 1024.95 1024.66 1024.33 1023.98 1023.63 1023.29 1022.98 1022.69 1022.41 1022.14 1021.85 1021.52 1021.16 1020.75 1020.30 1019.82 1019.33 1018.84 1018.37 1017.93 1017.52 1017.15 1016.81 1016.49 1016.18 1015.87 1015.58 1015.29 1015.01 1014.76 1014.54 1014.37 1014.23 1014.13
1025.06 1025.17 1025.30 1025.43 1025.54 1025.61 1025.61 1025.54 1025.39 1025.15 1024.85 1024.51 1024.14 1023.77 1023.42 1023.10 1022.80 1022.52 1022.24 1021.94 1021.61 1021.24 1020.81 1020.33 1019.82 1019.30 1018.78 1018.28 1017.81 1017.38 1016.99 1016.63 1016.30 1015.97 1015.64 1015.31 1014.98 1014.66 1014.35 1014.06 1013.82 1013.61 1013.44
1025.17 1025.27 1025.39 1025.52 1025.64 1025.72 1025.73 1025.67 1025.52 1025.28 1024.98 1024.63 1024.25 1023.88 1023.51 1023.18 1022.87 1022.57 1022.28 1021.96 1021.61 1021.20 1020.75 1020.25 1019.72 1019.18 1018.64 1018.13 1017.66 1017.24 1016.86 1016.51 1016.18 1015.86 1015.53 1015.18 1014.82 1014.45 1014.08 1013.73 1013.40 1013.11 1012.86
1025.20 1025.28 1025.40 1025.53 1025.66 1025.74 1025.77 1025.71 1025.57 1025.35 1025.05 1024.70 1024.32 1023.93 1023.55 1023.20 1022.87 1022.54 1022.22 1021.87 1021.48 1021.05 1020.56 1020.04 1019.49 1018.93 1018.39 1017.89 1017.44 1017.04 1016.69 1016.37 1016.08 1015.78 1015.46 1015.12 1014.74 1014.34 1013.93 1013.51 1013.11 1012.74 1012.41
1025.18 1025.26 1025.38 1025.51 1025.65 1025.74 1025.78 1025.73 1025.60 1025.38 1025.07 1024.72 1024.33 1023.92 1023.53 1023.14 1022.77 1022.41 1022.04 1021.65 1021.22 1020.74 1020.23 1019.68 1019.11 1018.56 1018.03 1017.55 1017.12 1016.76 1016.46 1016.19 1015.94 1015.68 1015.39 1015.07 1014.70 1014.29 1013.85 1013.39 1012.94 1012.50 1012.09
Thickness
5739 5738 5736 5733 5734 5733 5731 5729 5730 5729 5728 5728 5728 5727 5727 5725 5724 5722 5716 5708 5703 5700 5697 5694 5691 5689 5687 5685 5683 5681 5679 5678 5676 5675 5674 5674 5673 5672 5672 5671 5671 5671 5670
5737 5735 5733 5730 5730 5729 5729 5727 5727 5725 5725 5726 5725 5723 5722 5722 5718 5715 5714 5707 5701 5698 5694 5691 5689 5686 5684 5682 5679 5677 5675 5673 5672 5670 5669 5668 5667 5667 5666 5666 5665 5664 5664
5734 5731 5731 5728 5727 5724 5722 5721 5720 5720 5720 5720 5719 5717 5716 5714 5713 5710 5709 5706 5701 5695 5691 5687 5685 5682 5679 5677 5675 5673 5671 5669 5667 5665 5664 5662 5661 5661 5660 5659 5658 5658 5657
5729 5727 5726 5725 5721 5719 5717 5715 5714 5714 5713 5713 5713 5711 5710 5706 5705 5703 5702 5700 5698 5694 5688 5683 5680 5677 5675 5672 5670 5668 5665 5663 5661 5659 5658 5656 5654 5653 5652 5651 5650 5650 5649
5723 5721 5720 5717 5713 5711 5710 5709 5707 5705 5704 5703 5703 5701 5702 5701 5698 5697 5695 5693 5690 5687 5684 5678 5674 5672 5669 5667 5664 5662 5659 5657 5655 5653 5651 5650 5648 5646 5644 5643 5642 5641 5640
5717 5714 5712 5709 5706 5703 5701 5699 5697 5695 5694 5692 5693 5693 5692 5692 5690 5689 5687 5685 5682 5679 5678 5674 5670 5666 5663 5659 5657 5654 5652 5650 5647 5645 5644 5642 5640 5638 5636 5635 5633 5632 5630
5713 5709 5706 5703 5699 5696 5693 5691 5689 5686 5684 5682 5681 5680 5681 5681 5680 5678 5677 5677 5674 5671 5669 5666 5663 5660 5657 5652 5648 5646 5643 5641 5639 5637 5635 5634 5632 5629 5627 5625 5624 5622 5620
5706 5702 5698 5696 5693 5688 5685 5684 5681 5678 5675 5673 5673 5670 5669 5669 5669 5668 5667 5666 5664 5661 5659 5656 5653 5650 5648 5644 5640 5636 5633 5631 5629 5627 5625 5624 5621 5619 5617 5615 5613 5611 5609
5696 5693 5690 5687 5685 5683 5681 5677 5674 5671 5668 5666 5665 5664 5661 5660 5660 5658 5654 5653 5650 5648 5647 5644 5641 5638 5636 5633 5630 5625 5622 5619 5617 5615 5613 5612 5609 5607 5605 5603 5601 5599 5598
5686 5683 5680 5677 5675 5674 5672 5670 5668 5667 5663 5660 5655 5653 5652 5652 5649 5646 5645 5642 5639 5636 5635 5633 5629 5626 5624 5621 5617 5612 5609 5605 5603 5601 5599 5597 5596 5594 5592 5589 5587 5585 5584
5673 5671 5669 5666 5664 5662 5660 5659 5657 5656 5654 5651 5647 5644 5640 5638 5637 5636 5634 5631 5628 5625 5623 5619 5616 5613 5610 5607 5603 5599 5595 5591 5589 5586 5584 5581 5580 5578 5576 5574 5573 5571 5569
5657 5655 5655 5653 5650 5648 5647 5646 5644 5642 5639 5637 5634 5632 5630 5627 5625 5624 5621 5618 5615 5613 5610 5606 5603 5600 5597 5593 5590 5584 5580 5577 5574 5571 5568 5566 5563 5562 5560 5558 5556 5554 5553
5641 5639 5640 5637 5635 5634 5632 5631 5628 5626 5624 5621 5619 5617 5615 5612 5611 5609 5607 5606 5602 5601 5597 5593 5590 5586 5583 5579 5575 5569 5566 5562 5558 5555 5552 5549 5547 5545 5543 5540 5538 5537 5536
5627 5625 5624 5621 5619 5617 5616 5614 5612 5609 5607 5604 5602 5600 5599 5597 5595 5594 5592 5590 5589 5589 5586 5582 5577 5572 5568 5563 5558 5553 5552 5549 5544 5540 5537 5534 5531 5529 5526 5523 5521 5520 5518
5612 5609 5606 5604 5601 5599 5597 5596 5593 5590 5588 5587 5585 5583 5581 5580 5578 5576 5575 5573 5571 5572 5572 5568 5562 5557 5550 5546 5542 5538 5536 5534 5529 5525 5522 5519 5516 5513 5510 5508 5506 5504 5503
5595 5592 5589 5586 5583 5580 5578 5578 5576 5573 5571 5568 5566 5564 5562 5562 5559 5558 5556 5554 5552 5550 5551 5550 5544 5540 5533 5527 5526 5523 5521 5519 5516 5514 5509 5505 5502 5499 5496 5494 5492 5490 5488
5578 5575 5571 5568 5566 5563 5561 5560 5558 5555 5553 5551 5549 5547 5544 5541 5541 5540 5538 5536 5533 5531 5529 5529 5526 5523 5517 5512 5511 5509 5508 5507 5508 5505 5499 5494 5490 5487 5484 5481 5479 5477 5475
5562 5558 5555 5552 5549 5546 5544 5542 5540 5538 5536 5534 5532 5530 5527 5525 5521 5520 5518 5517 5515 5510 5508 5508 5507 5505 5503 5500 5498 5496 5496 5497 5495 5493 5489 5484 5481 5477 5474 5471 5469 5466 5464
5546 5543 5540 5537 5533 5531 5528 5526 5524 5521 5519 5517 5514 5512 5509 5506 5504 5503 5498 5499 5497 5495 5491 5490 5491 5490 5490 5490 5487 5486 5486 5484 5482 5482 5480 5478 5474 5470 5466 5464 5461 5458 5455
5532 5529 5526 5523 5520 5517 5514 5511 5508 5506 5502 5500 5497 5494 5492 5489 5486 5483 5483 5481 5479 5478 5478 5478 5479 5480 5480 5480 5478 5478 5477 5475 5473 5472 5471 5470 5468 5465 5462 5460 5456 5452 5449
5519 5516 5514 5510 5506 5502 5496 5492 5492 5491 5487 5485 5482 5479 5476 5470 5466 5465 5465 5465 5465 5466 5467 5468 5470 5471 5471 5470 5469 5467 5465 5464 5464 5463 5464 5464 5463 5462 5460 5457 5452 5448 5444
5506 5504 5501 5497 5493 5487 5477 5473 5471 5474 5472 5470 5468 5465 5463 5460 5455 5451 5450 5449 5448 5451 5455 5456 5459 5460 5459 5459 5457 5455 5455 5455 5456 5456 5455 5457 5457 5456 5454 5451 5447 5442 5438
5494 5491 5488 5484 5479 5470 5462 5458 5455 5456 5458 5455 5453 5450 5451 5451 5445 5445 5444 5443 5444 5444 5442 5444 5448 5449 5450 5450 5448 5448 5447 5446 5447 5448 5448 5451 5450 5449 5447 5446 5440 5436 5432
5483 5479 5475 5471 5465 5456 5448 5444 5441 5445 5446 5443 5441 5439 5438 5437 5437 5432 5435 5439 5443 5444 5442 5441 5443 5443 5444 5442 5440 5440 5440 5440 5441 5443 5443 5443 5444 5443 5443 5439 5435 5430 5426
5473 5469 5464 5458 5453 5445 5435 5432 5429 5435 5436 5434 5432 5431 5430 5429 5424 5422 5426 5434 5439 5441 5441 5440 5440 5440 5439 5437 5435 5435 5438 5438 5440 5443 5439 5435 5436 5435 5437 5436 5431 5426 5423
5463 5460 5454 5448 5442 5436 5426 5422 5418 5426 5427 5427 5427 5427 5423 5421 5419 5418 5423 5430 5434 5438 5440 5442 5442 5441 5440 5439 5435 5433 5435 5435 5436 5436 5434 5429 5428 5427 5428 5430 5427 5424 5421